SCP
0 0 0 0 0 0 0 0 0 0 0 0 1 1 1 1 1 1 1 1 1 1 1 1 1 1 1 1 1 1 1 1 1 1 0 0 0 0 0 0 0 0 0 0 0 0 0 0 0
0 0 0 0 0 0 0 0 0 0 1 1 1 1 1 1 1 1 1 1 1 1 1 1 1 1 1 1 1 1 1 1 1 0 0 0 0 0 0 0 0 0 0 0 0 0 0 0 0
0 0 0 0 0 0 0 0 0 1 1 1 1 1 1 1 2 2 2 2 2 1 1 1 1 1 1 1 1 1 1 1 1 0 0 0 0 0 0 0 0 0 0 0 0 0 0 0 0
0 0 0 0 0 0 0 0 1 1 1 1 1 1 1 2 2 3 3 3 2 2 1 1 1 1 1 1 1 1 1 1 1 0 0 0 0 0 0 0 0 0 0 0 0 0 0 0 0
0 0 0 0 0 0 0 1 1 1 1 2 2 2 1 2 3 3 4 3 2 2 2 2 2 1 1 1 1 1 1 1 1 1 0 0 0 0 0 0 0 0 0 0 0 0 0 0 0
0 0 0 0 0 0 1 1 2 2 2 2 2 2 2 2 4 5 5 3 3 2 2 2 2 2 1 1 1 1 1 1 1 1 1 0 0 0 0 0 0 0 0 0 0 0 0 0 0
0 0 0 0 0 0 1 1 2 2 2 2 3 3 3 4 6 7 6 5 3 3 3 3 2 2 1 1 1 1 1 1 1 1 1 0 0 0 0 0 0 0 0 0 0 0 0 0 0
0 0 0 0 0 0 1 1 2 2 2 3 3 3 3 5 8 10 9 7 5 4 3 3 2 2 1 1 1 1 1 1 1 1 1 0 0 0 0 0 0 0 0 0 0 0 0 0 0
0 0 0 0 0 0 1 1 1 2 2 3 3 3 3 5 9 10 10 8 6 4 3 3 2 2 1 1 1 1 1 1 1 1 1 0 0 0 0 0 0 0 0 0 0 0 0 0 0
0 0 0 0 0 0 0 1 1 2 3 4 4 4 5 6 8 9 9 8 6 5 3 3 2 2 2 1 1 1 1 1 1 1 1 0 0 0 0 0 0 0 0 0 0 0 0 0 0
0 0 0 0 0 0 0 1 1 2 3 4 5 5 6 7 8 7 7 6 6 5 4 3 2 2 2 2 1 1 1 1 1 1 1 0 0 0 0 0 0 0 0 0 0 0 0 0 0
0 0 0 0 0 0 0 1 1 2 3 4 5 6 7 7 6 6 6 6 6 5 4 3 3 2 2 2 1 1 1 1 1 1 1 0 0 0 0 0 0 0 0 0 0 0 0 0 0
0 0 0 0 0 0 0 1 1 2 3 4 5 5 6 6 6 5 6 6 7 5 3 2 2 2 2 2 1 1 1 1 1 1 1 0 0 0 0 0 0 0 0 0 0 0 0 0 0
0 0 0 0 0 0 0 1 1 2 3 4 4 4 4 5 5 6 6 7 7 5 3 2 2 2 2 2 1 1 1 1 1 1 1 0 0 0 0 0 0 0 0 0 0 0 0 0 0
0 0 0 0 0 0 0 0 1 2 2 3 3 3 3 4 5 6 6 7 6 4 3 2 2 2 2 2 2 2 2 1 1 1 1 0 0 0 0 0 0 0 0 0 0 0 0 0 0
0 0 0 0 0 0 0 0 1 1 2 2 2 3 3 4 5 5 6 6 5 4 3 2 2 2 2 2 2 2 2 1 1 1 1 0 0 0 0 0 0 0 0 0 0 0 0 0 0
0 0 0 0 0 0 0 0 1 1 2 2 3 3 3 4 4 5 5 5 5 3 3 3 3 2 2 2 2 2 2 1 1 1 1 1 0 0 0 0 0 0 0 0 0 0 0 0 0
0 0 0 0 0 0 0 0 1 2 2 2 3 3 3 3 3 4 4 5 5 3 3 3 3 3 2 2 2 2 1 1 1 1 1 1 1 1 0 0 0 0 0 0 0 0 0 0 0
0 0 0 0 0 0 0 1 1 2 2 2 2 2 2 3 3 3 4 5 5 4 3 3 3 3 3 2 2 2 1 1 1 1 1 1 1 1 1 1 0 0 0 0 0 0 0 0 0
0 0 0 0 0 0 0 1 1 1 1 2 1 1 2 2 2 3 3 4 5 4 3 3 4 3 3 3 3 2 1 1 1 1 1 1 1 1 1 1 1 0 0 0 0 0 0 0 0
0 0 0 0 0 0 0 0 1 1 1 1 1 1 2 2 2 2 3 3 4 3 3 4 4 4 4 4 3 2 1 1 1 1 1 1 1 1 1 1 1 1 0 0 0 0 0 0 0
0 0 0 0 0 0 0 0 0 1 1 1 1 1 2 2 2 2 2 3 3 3 3 3 3 3 4 4 3 1 1 1 1 1 1 1 1 1 1 1 1 1 1 0 0 0 0 0 0
0 0 0 0 0 0 0 0 0 0 1 1 1 1 2 2 2 2 2 2 2 2 2 2 2 2 3 3 3 2 2 2 2 1 1 1 1 1 1 1 1 1 1 0 0 0 0 0 0
0 0 0 0 0 0 0 0 0 0 0 0 0 1 2 2 2 2 2 2 2 2 2 2 2 2 2 3 3 3 3 3 2 2 2 1 1 1 1 1 1 1 1 0 0 0 0 0 0
0 0 0 0 0 0 0 0 0 0 0 0 0 1 1 2 2 2 1 1 1 2 2 2 2 2 2 2 2 2 3 3 3 2 2 2 2 1 1 2 1 1 1 0 0 0 0 0 0
0 0 0 0 0 0 0 0 0 0 0 0 1 1 1 1 1 1 1 1 1 1 1 1 2 2 2 2 1 2 2 2 2 2 1 2 2 2 2 2 2 1 1 1 0 0 0 0 0
0 0 0 0 0 0 0 0 0 0 0 0 1 1 1 1 1 2 2 2 1 1 1 1 2 2 2 2 2 2 1 1 1 1 1 1 1 2 1 1 1 1 1 1 0 0 0 0 0
0 0 0 0 0 0 0 0 0 0 0 0 1 1 1 1 1 2 2 2 2 1 1 1 1 2 2 3 3 2 2 1 0 0 0 0 1 1 1 1 1 1 1 1 0 0 0 0 0
0 0 0 0 0 0 0 0 0 0 0 1 1 1 1 1 1 2 2 2 2 1 1 1 1 2 3 3 3 2 2 1 0 0 0 0 0 1 1 1 1 0 0 0 0 0 0 0 0
0 0 0 0 0 0 0 0 0 0 0 1 1 1 1 1 1 1 2 2 2 2 2 1 1 2 3 3 2 2 1 1 1 0 0 0 0 0 1 1 0 0 0 0 0 0 0 0 0
Wind_Speed
5 3 2 1 3 5 2 3 2 1 1 1 4 5 6 4 4 3 3 11 15 14 12 15 17 17 16 16 15 15 15 15 15 14 14 13 13 12 11 11 11 11 11 12 12 12 12 12 12
4 4 1 2 4 3 3 2 1 1 2 3 4 4 4 2 3 7 7 10 15 15 11 13 18 17 17 16 16 15 15 15 14 14 13 13 12 11 11 11 11 11 12 12 12 12 12 12 12
4 3 2 4 3 2 3 2 2 1 3 2 3 3 3 4 6 7 7 13 13 12 10 13 20 18 17 16 15 15 15 14 13 13 13 12 12 11 11 11 11 11 11 12 12 12 12 12 12
2 2 3 4 0 4 4 4 3 3 1 1 3 3 2 2 6 7 13 15 14 11 9 13 19 18 17 16 16 15 14 14 13 12 12 12 11 11 11 11 11 11 11 11 12 12 12 11 11
2 3 4 3 3 4 5 5 5 5 3 1 3 4 2 3 8 14 16 16 15 11 9 12 19 18 17 17 16 15 14 14 13 12 12 11 11 11 10 11 11 11 11 11 11 11 10 10 10
3 4 4 2 5 5 3 5 5 4 2 2 3 4 1 3 10 14 14 14 13 13 10 11 19 19 18 17 16 15 14 13 13 12 11 11 11 10 10 10 10 10 10 10 10 10 9 9 9
3 3 1 2 4 5 2 3 5 5 4 5 5 5 2 4 7 11 12 12 11 10 9 8 10 13 17 17 16 15 14 13 13 12 11 11 10 10 10 9 10 10 10 9 9 9 8 8 8
4 4 1 2 3 5 2 1 2 5 4 3 6 7 5 7 10 11 11 10 9 8 8 7 7 7 8 10 15 15 14 13 12 12 11 11 10 9 9 8 9 9 9 9 8 8 7 7 7
3 4 1 4 4 5 2 0 1 2 4 2 2 3 6 16 16 14 12 10 10 10 7 7 7 7 7 7 12 13 13 13 12 10 12 9 4 4 5 6 8 9 8 8 8 7 7 6 6
4 2 6 6 4 4 5 3 4 3 2 2 2 5 14 18 17 17 16 15 14 13 10 7 7 7 7 7 6 4 5 5 5 4 5 4 3 3 4 5 8 8 8 7 6 6 6 5 3
5 6 5 6 6 5 5 4 4 7 5 8 9 13 18 18 15 15 15 14 13 12 11 9 8 8 7 4 4 3 3 3 4 4 5 4 3 2 2 1 2 3 4 3 3 4 3 2 2
4 7 6 7 5 4 4 2 2 7 8 7 11 17 20 19 17 17 15 13 11 11 11 10 9 7 6 5 4 4 3 3 3 4 5 4 2 2 2 1 1 2 1 2 2 2 2 2 2
4 6 5 7 9 6 3 3 3 5 3 6 13 17 19 18 15 11 10 10 11 12 11 10 10 9 7 5 5 5 4 4 4 3 4 4 3 3 2 1 1 1 1 2 1 1 1 1 2
4 5 8 8 6 3 2 2 2 4 4 9 13 15 15 15 14 11 10 11 12 11 10 9 9 8 7 5 5 5 5 4 4 3 4 5 3 3 3 2 2 1 1 1 1 1 1 1 1
3 5 8 4 3 2 1 3 4 3 6 8 10 11 11 10 11 13 14 13 12 11 10 10 9 7 7 6 6 5 5 5 4 4 4 5 4 4 3 3 2 2 2 2 2 2 2 1 1
3 3 5 7 3 3 2 5 5 3 7 7 8 8 8 8 10 10 10 10 10 11 10 10 10 9 7 6 5 4 5 5 4 4 4 5 5 5 4 3 3 2 2 2 2 2 2 1 1
5 3 4 8 4 3 2 6 6 2 6 7 7 8 8 7 8 8 9 10 11 12 11 10 8 9 8 6 5 4 5 5 4 4 4 5 5 6 4 3 3 3 3 2 2 2 2 2 2
2 2 4 7 6 6 5 6 5 1 4 5 6 6 7 9 9 8 8 9 10 11 11 11 9 9 8 5 4 3 3 3 3 4 4 5 5 6 5 3 3 4 3 2 2 2 2 2 2
2 3 7 9 6 4 5 5 5 1 2 3 4 5 7 8 5 5 7 9 10 10 11 11 11 10 8 6 5 5 4 3 3 4 5 6 6 6 5 4 4 4 3 4 4 3 3 2 2
3 4 7 9 4 1 3 5 4 1 2 3 5 5 6 5 4 6 7 8 10 11 11 11 12 12 11 7 5 4 4 3 3 2 3 5 6 6 6 6 5 4 4 4 3 3 3 2 1
5 5 6 7 6 4 2 6 4 3 1 1 2 3 4 6 7 7 8 8 9 10 11 11 11 11 10 9 5 4 3 2 2 3 3 4 6 6 6 6 5 5 4 4 4 4 4 3 1
6 7 7 5 3 4 1 4 7 3 3 2 2 2 4 4 6 7 7 8 9 9 9 9 9 10 9 10 9 9 7 6 5 4 4 4 4 5 5 6 6 5 4 4 4 4 3 4 2
8 3 2 2 2 1 2 2 9 2 4 4 3 3 4 4 6 7 8 8 7 7 7 7 8 8 9 10 11 9 6 5 4 4 5 4 4 5 5 6 5 5 4 4 4 4 4 3 3
4 4 5 5 5 1 2 2 8 4 5 3 2 3 3 4 5 5 5 5 5 5 6 6 7 8 8 9 9 10 9 8 7 6 6 4 3 3 4 5 5 5 4 5 5 4 5 3 3
4 5 4 5 4 5 2 2 10 6 4 4 4 4 3 4 5 6 6 6 6 7 7 7 8 7 8 9 9 10 10 10 10 8 7 6 4 3 5 5 5 5 4 5 5 4 4 4 4
6 10 8 5 5 5 2 5 9 3 2 2 2 2 3 4 5 6 7 7 7 7 7 7 8 7 8 8 8 8 8 7 6 7 6 6 5 5 6 6 6 6 6 5 5 4 4 3 4
7 5 7 8 3 1 5 7 9 1 1 1 0 1 3 4 6 6 6 6 6 6 6 7 7 7 7 7 7 6 7 6 6 6 5 4 4 4 6 6 6 6 6 6 5 3 3 4 3
5 9 6 7 7 3 4 5 5 4 2 2 2 3 3 4 5 6 6 5 5 5 5 5 6 6 6 6 6 6 6 6 6 6 6 6 5 5 6 6 6 6 6 6 5 4 4 4 3
5 5 5 5 5 7 3 8 6 5 5 5 5 4 5 5 5 6 5 5 5 5 5 5 5 5 5 6 6 6 6 6 6 6 6 6 5 6 6 6 6 6 6 6 5 5 5 5 3
5 7 8 6 4 4 4 8 4 4 4 4 4 3 4 5 5 5 5 5 5 5 5 4 5 5 5 6 6 5 5 5 6 5 5 5 5 5 6 6 6 5 5 5 6 6 6 5 5
Wind_Direction
187 152 141 117 57 46 354 301 286 339 49 103 128 135 143 150 172 190 136 142 138 144 151 153 150 145 140 135 132 129 128 126 126 126 126 126 125 124 123 121 119 118 116 114 113 114 115 115 114
142 153 146 61 73 48 312 281 292 262 155 115 95 102 110 107 96 116 133 146 143 145 148 152 152 148 144 140 137 134 133 131 131 130 128 127 127 126 122 120 119 118 116 116 116 114 114 113 113
161 179 93 67 86 172 255 259 211 115 140 125 105 83 119 144 138 145 151 144 139 143 147 156 154 151 148 145 143 141 138 136 135 134 132 131 130 127 125 123 120 119 119 118 116 114 114 113 113
142 66 58 66 249 232 229 234 184 153 214 60 118 105 83 100 148 148 142 144 141 143 147 159 155 154 152 150 148 146 144 143 140 138 136 135 133 131 129 126 123 121 119 117 115 114 114 113 112
77 79 54 19 280 258 241 223 185 179 191 157 133 130 78 21 119 135 143 147 146 146 150 160 158 157 155 154 153 150 150 149 145 143 141 139 137 134 132 129 125 123 121 120 118 117 116 114 113
58 65 65 327 295 282 249 213 176 181 176 147 139 128 85 102 130 142 146 148 150 150 152 159 161 159 158 158 158 156 155 153 150 147 145 142 140 137 136 133 131 128 125 124 122 121 118 113 111
102 90 122 271 291 297 266 170 167 174 183 187 151 130 122 139 144 141 140 141 146 150 150 154 159 161 163 162 161 161 159 156 154 151 148 146 143 140 138 136 135 132 130 129 127 124 119 114 110
128 100 31 279 269 277 268 144 177 171 194 147 137 154 183 167 142 133 133 137 144 148 150 150 151 153 157 161 164 164 161 161 158 155 153 152 149 146 140 136 138 136 135 134 131 127 121 116 114
103 74 255 239 236 270 274 319 218 142 129 138 158 167 157 141 140 139 141 147 156 159 154 149 150 147 146 154 169 165 164 166 162 159 159 149 122 121 131 144 145 143 141 137 134 128 123 111 110
107 154 234 225 224 266 283 253 200 143 155 184 106 100 132 144 152 157 162 166 169 170 166 160 156 152 150 164 160 151 151 153 143 137 133 114 114 131 141 164 156 151 144 138 136 130 116 94 83
169 209 245 255 243 260 274 272 182 156 209 212 186 158 152 156 163 169 173 173 172 169 170 168 164 159 157 153 144 136 128 129 130 132 125 123 118 123 116 109 129 117 120 98 102 93 90 99 102
201 247 245 270 276 272 253 240 187 189 219 204 168 157 159 166 175 179 177 173 167 170 175 169 166 161 158 150 148 141 139 140 141 143 141 137 136 135 132 120 105 87 86 98 88 91 104 115 128
233 269 269 266 286 268 248 229 215 237 234 134 141 155 168 174 180 179 170 167 169 176 178 171 169 169 162 154 157 155 153 153 151 150 155 155 156 160 155 147 137 130 122 126 123 116 125 131 132
259 275 288 289 289 275 217 258 188 242 148 138 151 166 176 179 174 167 169 175 180 179 176 171 171 169 162 163 164 160 159 155 155 162 172 170 166 166 165 166 166 165 162 157 151 153 142 139 135
301 312 317 309 309 292 93 312 254 214 146 151 162 167 175 179 175 182 182 181 179 177 173 173 172 168 172 171 173 165 162 159 166 174 179 179 175 173 171 175 183 185 168 150 126 113 106 121 130
359 9 328 308 327 337 57 282 279 162 153 159 163 167 174 182 188 188 182 178 171 169 172 176 179 173 179 179 172 167 166 166 172 175 180 186 184 176 170 178 188 172 152 143 133 123 112 110 131
21 358 310 310 324 1 14 273 287 167 163 168 169 172 175 179 190 192 185 174 170 170 169 172 176 174 181 181 174 170 164 169 171 173 181 188 186 179 172 178 179 161 147 150 153 125 133 144 150
272 312 306 300 307 340 319 282 296 210 172 177 172 174 179 190 200 192 181 172 165 165 166 169 176 180 176 169 165 160 157 167 166 176 186 184 184 177 168 172 172 158 147 149 144 132 110 116 132
209 267 283 280 296 316 301 294 297 273 168 178 178 183 194 206 194 172 171 168 165 166 169 173 179 177 171 171 178 172 175 173 174 183 182 182 181 175 169 171 165 162 161 165 153 128 119 104 107
222 275 285 293 323 326 301 301 300 279 218 202 192 199 201 187 169 171 166 172 176 177 179 180 183 179 179 180 175 162 149 158 170 172 180 183 182 176 177 171 170 165 151 150 152 137 127 113 120
241 226 252 272 325 356 352 317 298 302 334 229 195 201 197 187 182 179 176 181 181 184 187 187 185 180 177 171 152 134 115 106 139 167 188 194 185 180 175 174 165 162 161 165 167 156 146 146 134
260 231 226 264 308 296 359 283 288 290 307 267 231 213 207 195 181 179 181 184 188 191 187 183 176 174 173 169 167 166 172 178 187 181 185 187 185 176 172 168 163 164 165 165 170 159 150 145 153
223 235 219 256 192 291 340 214 285 316 276 258 239 233 216 198 184 183 185 186 184 180 179 176 168 170 173 175 176 176 180 177 165 166 173 179 181 175 172 166 163 166 167 168 160 152 156 153 157
198 66 51 48 72 310 263 192 277 253 233 251 249 238 212 198 180 171 167 162 168 168 169 170 169 173 174 177 180 180 180 172 169 179 181 180 175 175 174 167 167 167 165 166 164 158 162 161 153
133 94 25 355 9 254 260 213 252 257 236 227 248 244 211 190 170 160 159 165 168 168 168 168 171 173 173 177 185 186 184 180 183 184 184 178 175 181 183 175 171 168 168 164 155 154 160 163 160
175 147 161 194 223 272 308 241 255 260 256 260 254 214 181 174 166 166 168 167 167 166 164 167 173 174 175 179 186 187 181 180 185 184 178 181 184 185 175 174 174 169 164 161 154 150 159 159 162
146 179 165 135 156 269 284 286 302 257 326 339 30 149 172 173 170 166 159 157 158 160 165 168 171 173 176 179 178 180 177 178 178 175 172 174 175 175 170 169 169 166 162 158 153 153 156 153 157
145 144 111 127 148 222 285 282 264 272 239 214 195 195 196 174 167 160 157 154 150 152 155 159 165 171 170 169 175 173 168 171 171 166 172 174 176 170 164 166 166 161 158 157 152 147 148 146 147
118 118 113 116 147 155 221 267 232 225 210 199 207 201 191 181 173 163 157 149 139 137 145 153 157 156 157 161 161 156 156 158 160 165 171 172 166 163 165 167 163 160 158 156 154 156 156 155 153
165 164 147 148 184 160 168 262 274 224 219 200 203 193 180 170 160 151 150 139 132 138 139 146 153 155 160 155 149 149 149 150 155 160 164 161 162 163 161 157 157 161 162 162 166 168 164 162 164